Home   Weather   Namur   Past weeks

Flag for Belgium Past Weather in Namur, Belgium — Yesterday and Last 2 Weeks

Now
41 °F

Passing clouds.


Feels Like: 37 °F
Forecast: 32 / 51 °F
Wind: 6 mph from Northwest

Location: Charleroi / Gosselies

Current Time: Apr 26, 2017 at 9:46:41 pm

Latest Report: Apr 26, 2017 at 9:20 pm


Visibility: N/A

Pressure: 29.98 "Hg

Humidity: 70%

Dew Point: 32 °F

Location of NamurLocation

Past Weather in Namur — Graph

°F

Namur Temperature Yesterday

Maximum temperature yesterday: 48 °F (at 12:20 am)
Minimum temperature yesterday: 39 °F (at 6:50 am)
Average temperature yesterday: 44 °F

High & Low Weather Summary for the Past Weeks

 TemperatureHumidityPressure
High59 °F (Apr 12, 4:20 pm)100% (Apr 15, 7:50 am)30.63 "Hg (Apr 15, 7:50 am)
Low30 °F (Apr 20, 3:50 am)28% (Apr 20, 5:20 pm)29.77 "Hg (Apr 25, 1:20 am)
Average45 °F65%30.18 "Hg
* Reported Apr 11 7:20 pm — Apr 26 7:50 pm, Namur, Weather by CustomWeather, © 2017

Note: Actual official high and low records may vary slightly from our data, if they occured in-between our weather recording intervals... More about our weather records

Advertising

Namur Weather History for the Previous 24 Hours

Scroll right to see more
 ConditionsComfort  
Time TempWeatherWind HumidityBarometerVisibility
7:50 pm
Wed, Apr 26
41 °FScattered clouds.8 mph76%29.95 "HgN/A
7:20 pm41 °FScattered clouds.9 mph70%29.95 "HgN/A
6:50 pm46 °FPassing clouds.3 mph62%29.95 "HgN/A
6:20 pm45 °FPassing clouds.3 mph66%29.95 "HgN/A
5:50 pm43 °FPartly sunny.6 mph71%29.95 "HgN/A
5:20 pm43 °FSprinkles. Partly sunny.13 mph71%29.95 "HgN/A
4:50 pm46 °FScattered clouds.5 mph53%29.92 "HgN/A
4:20 pm46 °FScattered clouds.9 mph53%29.92 "HgN/A
3:50 pm48 °FScattered clouds.12 mph50%29.92 "HgN/A
3:20 pm50 °FScattered clouds.6 mph43%29.92 "HgN/A
2:50 pm50 °FScattered clouds.7 mph40%29.92 "HgN/A
2:20 pm48 °FScattered clouds.12 mph50%29.92 "HgN/A
1:50 pm48 °FScattered clouds.5 mph43%29.92 "HgN/A
1:20 pm46 °FScattered clouds.6 mph46%29.92 "HgN/A
12:50 pm45 °FScattered clouds.6 mph53%29.92 "HgN/A
12:20 pm45 °FScattered clouds.7 mph49%29.92 "HgN/A
11:50 am45 °FScattered clouds.3 mph57%29.92 "HgN/A
11:20 am45 °FScattered clouds.6 mph57%29.92 "HgN/A
10:50 am43 °FScattered clouds.7 mph66%29.92 "HgN/A
10:20 am43 °FPassing clouds.6 mph71%29.92 "HgN/A
9:50 am41 °FPassing clouds.6 mph76%29.92 "HgN/A
9:20 am41 °FScattered clouds.5 mph76%29.89 "HgN/A
8:50 am39 °FPartly sunny.6 mph81%29.89 "HgN/A
8:20 am37 °FPassing clouds.5 mph81%29.89 "HgN/A
7:50 am34 °FPassing clouds.8 mph81%29.89 "HgN/A
7:20 am34 °FScattered clouds.5 mph81%29.89 "HgN/A
6:50 am34 °FPartly sunny.5 mph81%29.89 "HgN/A
6:20 am34 °FSprinkles. Passing clouds.6 mph75%29.89 "HgN/A
5:50 am34 °FPassing clouds.7 mph75%29.86 "HgN/A
5:20 am32 °FClear.7 mph75%29.89 "Hg10 mi
4:50 am36 °FClear.7 mph65%29.89 "Hg10 mi
4:20 am34 °FClear.7 mph70%29.89 "Hg10 mi
3:50 am36 °FClear.7 mph70%29.89 "Hg10 mi
3:20 am36 °FClear.7 mph65%29.89 "Hg10 mi
2:50 am36 °FClear.5 mph65%29.89 "Hg10 mi
2:20 am37 °FClear.6 mph65%29.89 "Hg10 mi
1:50 am36 °FClear.3 mph70%29.86 "Hg10 mi
1:20 am36 °FClear.2 mph70%29.86 "Hg10 mi
12:50 am37 °FClear.2 mph60%29.89 "Hg10 mi
12:20 am37 °FClear.2 mph60%29.86 "Hg10 mi
11:50 pm
Tue, Apr 25
39 °FClear.2 mph52%29.86 "Hg10 mi
11:20 pm39 °FPassing clouds.3 mph52%29.86 "HgN/A
10:50 pm41 °FClear.5 mph49%29.86 "Hg10 mi
10:20 pm41 °FPassing clouds.5 mph49%29.86 "HgN/A
9:50 pm41 °FClear.7 mph53%29.86 "Hg10 mi
9:20 pm43 °FPassing clouds.6 mph49%29.86 "HgN/A
Weather by CustomWeather, © 2017

See weather overviewHow to use our weather pages